Simultaneous Nadir Overpasses (SNOs) Predictions

Prediction of SNOs between GOES-15 and METOP-B Satellite Orbit:

Table of predicted SNOs for the next 14.0 days since TLE Epoch: 12/21/2024
Index Date Time (GOES-15) GOES-15 Lat,Lon METOP-B Lat,Lon Distance(km) Time Diff (sec)
1 12/22/2024 05:09:17 -0.09, 61.36 -0.18, 61.71 39.89 80
2 12/23/2024 17:28:27 0.08, 61.42 -0.91, 57.07 496.26 80
3 12/24/2024 17:05:13 0.08, 61.42 0.19, 62.03 68.45 80
4 12/26/2024 05:24:14 -0.07, 61.37 0.81, 57.41 451.36 80
5 12/27/2024 05:06:21 -0.08, 61.37 -0.29, 62.37 114.07 80
6 12/28/2024 17:25:30 0.07, 61.43 -0.78, 57.73 422.15 80
7 12/29/2024 17:02:17 0.07, 61.44 0.32, 62.69 141.76 80
8 12/31/2024 05:21:18 -0.06, 61.41 0.66, 58.07 380.31 80
9 01/01/2025 05:03:25 -0.06, 61.41 -0.45, 63.03 184.49 80
10 01/02/2025 17:22:33 0.05, 61.47 -0.66, 58.39 351.50 80
11 01/03/2025 16:59:19 0.05, 61.49 0.46, 63.35 212.03 80
